When you browse on this site, cookies collect data to enhance your experience and personalize the content and advertising you see.
Visit our Privacy Policy to learn more. By continuing to use the site, you agree to this use of cookies and data.
  • In Hungary
  • List of Countries
  • For 7 days
  • Water Temperature
  • Satellite Maps
  • Weather Map
  • News
  • Weather Widgets
  • user-avatar
    Login

    Hourly Weather Qingjiangqiao

    Today, 21 April, Sunday

    Time Temperature Precipitation Wind Pressure Humidity
    00:00 +24°C° 0 mm 1 mps 728 mmHg 92%
    01:00 +21°C° 0 mm 0 mps 728 mmHg 94%
    02:00 +21°C° 0 mm 0 mps 728 mmHg 94%
    03:00 +21°C° 0 mm 0 mps 728 mmHg 94%
    04:00 +23°C° 0 mm 1 mps 728 mmHg 95%
    05:00 +23°C° 0 mm 1 mps 728 mmHg 93%
    06:00 +24°C° 0 mm 1 mps 729 mmHg 91%
    07:00 +24°C° 0 mm 1 mps 729 mmHg 89%
    08:00 +25°C° 0 mm 1 mps 729 mmHg 85%
    09:00 +26°C° 0 mm 1 mps 729 mmHg 82%
    10:00 +27°C° 0 mm 1 mps 729 mmHg 78%
    11:00 +28°C° 0.5 mm 1 mps 729 mmHg 75%
    12:00 +29°C° 0.5 mm 1 mps 729 mmHg 73%
    13:00 +27°C° 0 mm 2 mps 729 mmHg 77%
    14:00 +27°C° 0.7 mm 2 mps 729 mmHg 79%
    15:00 +27°C° 0.7 mm 2 mps 728 mmHg 80%
    16:00 +26°C° 0.7 mm 2 mps 728 mmHg 82%
    17:00 +26°C° 0.2 mm 2 mps 728 mmHg 84%
    18:00 +25°C° 0.2 mm 2 mps 728 mmHg 86%
    19:00 +24°C° 0.2 mm 1 mps 729 mmHg 89%
    20:00 +24°C° 0 mm 1 mps 729 mmHg 89%
    21:00 +24°C° 0 mm 1 mps 730 mmHg 90%
    22:00 +23°C° 0 mm 1 mps 730 mmHg 91%
    23:00 +23°C° 0 mm 1 mps 730 mmHg 91%

    Tomorrow, 22 April, Monday

    Time Temperature Precipitation Wind Pressure Humidity
    00:00 +23°C° 0 mm 1 mps 730 mmHg 91%
    01:00 +22°C° 0 mm 1 mps 730 mmHg 91%
    02:00 +22°C° 1.1 mm 1 mps 729 mmHg 92%
    03:00 +22°C° 1.1 mm 1 mps 729 mmHg 93%
    04:00 +21°C° 1.1 mm 1 mps 729 mmHg 95%
    05:00 +22°C° 0.6 mm 1 mps 729 mmHg 93%
    06:00 +22°C° 0.6 mm 1 mps 729 mmHg 91%
    07:00 +22°C° 0.6 mm 1 mps 730 mmHg 89%
    08:00 +24°C° 0.1 mm 1 mps 730 mmHg 85%
    09:00 +25°C° 0.1 mm 1 mps 730 mmHg 80%
    10:00 +27°C° 0.1 mm 1 mps 730 mmHg 75%
    11:00 +28°C° 0.1 mm 1 mps 730 mmHg 72%
    12:00 +29°C° 0.1 mm 1 mps 729 mmHg 69%
    13:00 +30°C° 0.1 mm 1 mps 729 mmHg 65%
    14:00 +30°C° 1.1 mm 1 mps 729 mmHg 68%
    15:00 +30°C° 1.1 mm 1 mps 728 mmHg 71%
    16:00 +29°C° 1.1 mm 1 mps 727 mmHg 73%
    17:00 +28°C° 0.9 mm 1 mps 728 mmHg 79%
    18:00 +27°C° 0.9 mm 1 mps 728 mmHg 84%
    19:00 +25°C° 0.9 mm 1 mps 728 mmHg 90%
    20:00 +25°C° 0.2 mm 1 mps 728 mmHg 91%
    21:00 +25°C° 0.2 mm 1 mps 729 mmHg 92%
    22:00 +22°C° 0.2 mm 0 mps 729 mmHg 93%
    23:00 +22°C° 1 mm 0 mps 729 mmHg 93%

    Day after tomorrow, 23 April, Tuesday

    Time Temperature Precipitation Wind Pressure Humidity
    00:00 +24°C° 1 mm 1 mps 729 mmHg 94%
    01:00 +24°C° 1 mm 1 mps 729 mmHg 94%
    02:00 +24°C° 0 mm 1 mps 729 mmHg 95%
    03:00 +24°C° 0 mm 1 mps 728 mmHg 95%
    04:00 +24°C° 0 mm 1 mps 728 mmHg 95%
    05:00 +25°C° 0 mm 1 mps 728 mmHg 93%
    06:00 +25°C° 0 mm 1 mps 729 mmHg 91%
    07:00 +26°C° 0 mm 1 mps 729 mmHg 89%
    08:00 +28°C° 0 mm 1 mps 729 mmHg 80%
    09:00 +30°C° 0 mm 1 mps 730 mmHg 72%
    10:00 +33°C° 0 mm 1 mps 730 mmHg 63%
    11:00 +33°C° 0.3 mm 1 mps 730 mmHg 63%
    12:00 +33°C° 0.3 mm 1 mps 729 mmHg 63%
    13:00 +33°C° 0.3 mm 1 mps 729 mmHg 63%
    14:00 +33°C° 0.2 mm 1 mps 728 mmHg 64%
    15:00 +33°C° 0.2 mm 1 mps 728 mmHg 65%
    16:00 +32°C° 0.2 mm 1 mps 727 mmHg 66%
    17:00 +31°C° 0.6 mm 1 mps 728 mmHg 73%
    18:00 +30°C° 0.6 mm 1 mps 728 mmHg 79%
    19:00 +28°C° 0.6 mm 1 mps 728 mmHg 85%
    20:00 +28°C° 0.4 mm 1 mps 729 mmHg 87%
    21:00 +27°C° 0.4 mm 1 mps 729 mmHg 88%
    22:00 +27°C° 0.4 mm 1 mps 729 mmHg 90%
    23:00 +26°C° 1.8 mm 1 mps 729 mmHg 91%

    24 April, Wednesday

    Time Temperature Precipitation Wind Pressure Humidity
    00:00 +26°C° 1.8 mm 1 mps 729 mmHg 92%
    01:00 +24°C° 1.8 mm 0 mps 728 mmHg 93%
    02:00 +26°C° 0.8 mm 1 mps 728 mmHg 93%
    03:00 +26°C° 0.8 mm 1 mps 728 mmHg 93%
    04:00 +26°C° 0.8 mm 1 mps 728 mmHg 93%
    05:00 +26°C° 0 mm 1 mps 728 mmHg 90%
    06:00 +27°C° 0 mm 1 mps 729 mmHg 88%
    07:00 +28°C° 0 mm 1 mps 729 mmHg 85%
    08:00 +30°C° 0 mm 2 mps 729 mmHg 77%
    09:00 +31°C° 0 mm 2 mps 729 mmHg 69%
    10:00 +34°C° 0 mm 2 mps 730 mmHg 61%
    11:00 +34°C° 0 mm 2 mps 729 mmHg 59%
    12:00 +35°C° 0 mm 2 mps 729 mmHg 57%
    13:00 +35°C° 0 mm 2 mps 728 mmHg 55%
    14:00 +35°C° 0 mm 2 mps 728 mmHg 56%
    15:00 +34°C° 0 mm 1 mps 727 mmHg 56%
    16:00 +34°C° 0 mm 1 mps 726 mmHg 57%
    17:00 +32°C° 3.4 mm 1 mps 727 mmHg 65%
    18:00 +30°C° 3.4 mm 1 mps 727 mmHg 73%
    19:00 +26°C° 3.4 mm 0 mps 727 mmHg 80%
    20:00 +28°C° 1.6 mm 1 mps 728 mmHg 81%
    21:00 +28°C° 1.6 mm 1 mps 728 mmHg 83%
    22:00 +27°C° 1.6 mm 2 mps 728 mmHg 84%
    23:00 +27°C° 0 mm 2 mps 728 mmHg 84%

    25 April, Thursday

    Time Temperature Precipitation Wind Pressure Humidity
    00:00 +27°C° 0 mm 1 mps 728 mmHg 84%
    01:00 +26°C° 0 mm 1 mps 728 mmHg 85%
    02:00 +26°C° 0 mm 1 mps 727 mmHg 85%
    03:00 +26°C° 0 mm 1 mps 727 mmHg 86%
    04:00 +26°C° 0 mm 1 mps 727 mmHg 86%
    05:00 +24°C° 0.1 mm 0 mps 728 mmHg 84%
    06:00 +25°C° 0.1 mm 0 mps 728 mmHg 82%
    07:00 +25°C° 0.1 mm 0 mps 729 mmHg 81%
    08:00 +29°C° 1.6 mm 1 mps 729 mmHg 74%
    09:00 +31°C° 1.6 mm 1 mps 729 mmHg 67%
    10:00 +32°C° 1.6 mm 1 mps 730 mmHg 60%
    11:00 +33°C° 0 mm 1 mps 729 mmHg 58%
    12:00 +33°C° 0 mm 1 mps 728 mmHg 55%
    13:00 +31°C° 0 mm 0 mps 728 mmHg 53%
    14:00 +31°C° 0 mm 0 mps 728 mmHg 54%
    15:00 +31°C° 0 mm 0 mps 728 mmHg 54%
    16:00 +31°C° 0 mm 0 mps 727 mmHg 55%
    17:00 +31°C° 0 mm 1 mps 728 mmHg 61%
    18:00 +30°C° 0 mm 1 mps 728 mmHg 67%
    19:00 +28°C° 0 mm 1 mps 728 mmHg 73%
    20:00 +28°C° 0.2 mm 1 mps 728 mmHg 76%
    21:00 +27°C° 0.2 mm 1 mps 729 mmHg 78%
    22:00 +27°C° 0.2 mm 1 mps 729 mmHg 81%
    23:00 +27°C° 0.1 mm 1 mps 729 mmHg 81%

    26 April, Friday

    Time Temperature Precipitation Wind Pressure Humidity
    00:00 +26°C° 0.1 mm 1 mps 729 mmHg 82%
    01:00 +24°C° 0.1 mm 0 mps 728 mmHg 83%
    02:00 +24°C° 0 mm 0 mps 728 mmHg 84%
    03:00 +23°C° 0 mm 0 mps 728 mmHg 85%
    04:00 +23°C° 0 mm 0 mps 728 mmHg 86%
    05:00 +24°C° 0 mm 0 mps 728 mmHg 83%
    06:00 +25°C° 0 mm 0 mps 729 mmHg 80%
    07:00 +26°C° 0 mm 0 mps 730 mmHg 77%
    08:00 +28°C° 0.1 mm 0 mps 730 mmHg 70%
    09:00 +30°C° 0.1 mm 0 mps 730 mmHg 63%
    10:00 +34°C° 0.1 mm 1 mps 730 mmHg 56%
    11:00 +34°C° 1.1 mm 1 mps 730 mmHg 54%
    12:00 +34°C° 1.1 mm 1 mps 730 mmHg 52%
    13:00 +35°C° 1.1 mm 1 mps 729 mmHg 50%
    14:00 +34°C° 0.2 mm 1 mps 729 mmHg 51%
    15:00 +34°C° 0.2 mm 1 mps 729 mmHg 51%
    16:00 +34°C° 0.2 mm 1 mps 728 mmHg 52%
    17:00 +32°C° 0.1 mm 1 mps 729 mmHg 57%
    18:00 +31°C° 0.1 mm 1 mps 729 mmHg 62%
    19:00 +30°C° 0.1 mm 1 mps 729 mmHg 67%
    20:00 +29°C° 0 mm 1 mps 729 mmHg 69%
    21:00 +28°C° 0 mm 1 mps 729 mmHg 72%
    22:00 +28°C° 0 mm 1 mps 730 mmHg 74%
    23:00 +27°C° 0.1 mm 1 mps 730 mmHg 76%
    Show more